Showing default

TRANSIT 5E 3, 705

Orbit data source: Space-Track

TRANSIT 5E 3, 705 is a payload satellite owned by USN BuWeps (US) in LEO that was launched on Thu, 05 Dec 1963 UTC via a THOR ABLESTAR launch vehicle from the Air Force Western Test Range (AFWTR). Payload-class satellites include a variety of spacecraft equipped with specific instruments for various scientific and technological missions. These include communications satellites like Starlink; space stations such as the ISS; scientific satellites like the Hubble; Earth observation satellites from companies like Planet Labs, Umbra, and HawkEye 360; GPS; miniature CubeSats for education and research; and military/defense satellites.

Loading next visibility...
Identifier
705, 1963-049C
Orbit
LEO
Country
Flag of USUS
Related business
Manufacturer
APL
Mission
Civil Science
Bus & Motor
TRANSIT 5, Unknown motor
Mass
52 kg wet, 52 kg dry
Launch date (UTC)
1963-12-05 (62 years ago)
Launch vehicle
THOR ABLESTAR
Launch site
Air Force Western Test Range (AFWTR)
Object type
Payload
Rocket body
Debris
Shape & HBR
Oct Cyl + 4 Pan, 1.5 m
Radar Cross Section
0.892 m², Large (>1 m²)

Expand to show TLE details & history
Last TLE update: 14 hours ago

TLE from 14 hours ago
0 TRANSIT 5E 3
1 00705U 63049C   25260.31397147  .00000083  00000-0  12019-3 0  9991
2 00705  89.9137  72.6017 0032586 322.9746 154.5528 13.47630793 35349
Epoch: 2025-09-17T07:32Z
TLE epoch observation values (Epoch: 2025-09-17T07:32:07.135Z)
Latitude
62.39864°
Longitude
142.91604°
Altitude
1,113.742 km
Speed
7.291 km/s
True Right ascension
16h 49m 44s
True Declination
62° 15' 50"
Sunlit
Object was in daylight at epoch
Visualization orbit readout
Latitude
Unknown
Longitude
Unknown
Altitude
Unknown
Speed
Unknown
Apparent Right ascension
Unknown
Apparent Declination
Unknown
Sunlit
N/A
Visualization observer readout
Local Sidereal Time
13:59:30
Azimuth
Unknown
Elevation
Unknown
Doppler factor
Unknown
Orbital elements
Apogee altitude
1,102.338 km
Perigee altitude
1,053.745 km
Semi-major axis
7,456.178 km
Eccentricity
0.00326
Inclination
89.9137°
RAAN
72.6017°
Arg. of periapsis
322.9746°
True anomaly
154.71266°
Mean anomaly
154.5528°
Eccentric anomaly
154.63279°
Mean motion
3.37108 °/min
Orbital period
106.79 mins
BSTAR
0.00012019
Loading maneuver chart data...
Computing Atmospheric mass density...
Loading historical data...
Loading historical data...
Loading historical data...
Loading historical data...
Loading historical data...
Loading historical data...
Loading historical data...

Documentation

Showing up to 5 results
|